Hinsdale, NY

11:25 PM EST on December 04, 2016 (GMT -0500)
Cattaraugus County-Olean

Weather History for KOLE - October, 2013

Change the Weather History Date:

Friday, October 4, 2013

  Actual Average (KBFD) Record (KBFD)
Temperature  
Mean Temperature 66 °F 50 °F  
Max Temperature 71 °F 61 °F 77 °F (1967)
Min Temperature 60 °F 39 °F 20 °F (1974)
Degree Days  
Heating Degree Days 0 11  
Month to date heating degree days 41  
Since 1 July heating degree days 458  
Cooling Degree Days 0 0  
Month to date cooling degree days 0  
Year to date cooling degree days 192  
Growing Degree Days 16 (Base 50)    
Moisture  
Dew Point 62 °F    
Average Humidity 93    
Maximum Humidity 100    
Minimum Humidity 73    
Precipitation  
Precipitation 0.00 in 0.12 in 0.85 in (2000)
Month to date precipitation 0.48  
Year to date precipitation 34.35  
Sea Level Pressure  
Sea Level Pressure 30.08 in    
Wind  
Wind Speed 3 mph (SW)    
Max Wind Speed 9 mph    
Max Gust Speed -    
Visibility 6 miles    
Events Fog , Rain , Thunderstorm    
T = Trace of Precipitation, MM = Missing Value Source: NWS Daily Summary

Daily Weather History Graph

Daily Weather History Graph

Search for Another Location

Airport or City:

Trip Planner

Search our weather history database for the weather conditions in past years. The results will help you decide how hot, cold, wet, or windy it might be!

Date:

Astronomy

Oct. 04, 2013 Rise Set
Actual Time 7:14 AM EDT 6:49 PM EDT
Civil Twilight 6:46 AM EDT 7:17 PM EDT
Nautical Twilight 6:13 AM EDT 7:49 PM EDT
Astronomical Twilight 5:40 AM EDT 8:22 PM EDT
Moon 6:47 AM EDT (10/4) 6:30 PM EDT (10/4)
Length of Visible Light 12h 31m
Length of Day
11h 35m
Waning Crescent, 0% of the Moon is Illuminated
Oct 4
Waning Crescent
Oct 4
New
Oct 11
First Quarter
Oct 18
Full
Oct 26
Last Quarter

Hourly Weather History & Observations

Time (EDT) Temp. Dew Point Humidity Pressure Visibility Wind Dir Wind Speed Gust Speed Precip Events Conditions
12:35 AM 62.6 °F 62.6 °F 100% 30.08 in 4.0 mi Calm Calm - N/A   Overcast
12:55 AM 62.6 °F 62.6 °F 100% 30.08 in 2.0 mi Calm Calm - N/A   Overcast
1:15 AM 62.6 °F 62.6 °F 100% 30.08 in 0.2 mi SSW 3.5 mph - N/A Fog Fog
1:35 AM 62.6 °F 62.6 °F 100% 30.08 in 0.2 mi Calm Calm - N/A Fog Fog
1:55 AM 62.6 °F 62.6 °F 100% 30.08 in 0.2 mi SSW 4.6 mph - N/A Fog Fog
2:15 AM 62.6 °F 62.6 °F 100% 30.07 in 0.2 mi SSW 3.5 mph - N/A Fog Fog
2:35 AM 62.6 °F 62.6 °F 100% 30.07 in 0.5 mi SW 4.6 mph - N/A Fog Fog
2:55 AM 62.6 °F 62.6 °F 100% 30.06 in 2.5 mi SW 4.6 mph - N/A   Mostly Cloudy
3:15 AM 60.8 °F 60.8 °F 100% 30.06 in 0.2 mi SSW 5.8 mph - N/A Fog Fog
3:55 AM 60.8 °F 60.8 °F 100% 30.07 in 0.5 mi SW 3.5 mph - N/A Fog Fog
4:15 AM 60.8 °F 60.8 °F 100% 30.07 in 2.5 mi SW 3.5 mph - N/A   Overcast
4:35 AM 60.8 °F 60.8 °F 100% 30.07 in 1.0 mi SSW 3.5 mph - N/A   Overcast
4:55 AM 60.8 °F 60.8 °F 100% 30.07 in 0.2 mi SW 4.6 mph - N/A Fog Fog
5:15 AM 60.8 °F 60.8 °F 100% 30.07 in 0.5 mi SSW 5.8 mph - N/A Fog Fog
5:35 AM 60.8 °F 60.8 °F 100% 30.07 in 0.5 mi SSW 4.6 mph - N/A Fog Fog
5:55 AM 60.8 °F 60.8 °F 100% 30.08 in 0.5 mi SW 4.6 mph - N/A Fog Fog
6:15 AM 60.8 °F 60.8 °F 100% 30.08 in 3.0 mi SW 3.5 mph - N/A   Overcast
6:35 AM 60.8 °F 60.8 °F 100% 30.08 in 0.8 mi SSW 4.6 mph - N/A Thunderstorm Overcast
6:55 AM 60.8 °F 60.8 °F 100% 30.08 in 1.2 mi SW 3.5 mph - N/A   Overcast
7:15 AM 60.8 °F 60.8 °F 100% 30.08 in 4.0 mi SW 3.5 mph - N/A   Mostly Cloudy
7:35 AM 60.8 °F 60.8 °F 100% 30.09 in 2.5 mi WSW 3.5 mph - N/A Rain Rain
7:55 AM 60.8 °F 60.8 °F 100% 30.10 in 2.5 mi Calm Calm - N/A   Overcast
8:35 AM 60.8 °F 60.8 °F 100% 30.11 in 2.0 mi Calm Calm - N/A   Overcast
8:55 AM 60.8 °F 60.8 °F 100% 30.11 in 1.0 mi SW 3.5 mph - N/A   Overcast
9:15 AM 60.8 °F 60.8 °F 100% 30.11 in 2.5 mi Calm Calm - N/A   Overcast
9:35 AM 62.6 °F 62.6 °F 100% 30.11 in 4.0 mi SW 3.5 mph - N/A   Overcast
9:55 AM 62.6 °F 62.6 °F 100% 30.11 in 4.0 mi SW 4.6 mph - N/A   Overcast
10:15 AM 62.6 °F 62.6 °F 100% 30.11 in 5.0 mi Calm Calm - N/A   Overcast
10:35 AM 64.4 °F 62.6 °F 94% 30.10 in 10.0 mi Calm Calm - N/A   Overcast
10:55 AM 66.2 °F 62.6 °F 88% 30.09 in 10.0 mi Calm Calm - N/A   Overcast
11:15 AM 64.4 °F 62.6 °F 94% 30.09 in 10.0 mi West 4.6 mph - N/A   Overcast
11:35 AM 68.0 °F 62.6 °F 83% 30.09 in 10.0 mi SW 5.8 mph - N/A   Overcast
11:55 AM 68.0 °F 62.6 °F 83% 30.09 in 10.0 mi WSW 5.8 mph - N/A   Overcast
12:15 PM 68.0 °F 62.6 °F 83% 30.10 in 10.0 mi West 4.6 mph - N/A   Overcast
12:35 PM 68.0 °F 62.6 °F 83% 30.10 in 10.0 mi WSW 5.8 mph - N/A   Overcast
12:55 PM 68.0 °F 62.6 °F 83% 30.09 in 10.0 mi WSW 5.8 mph - N/A   Overcast
1:15 PM 69.8 °F 62.6 °F 78% 30.08 in 10.0 mi West 4.6 mph - N/A   Overcast
1:35 PM 71.6 °F 62.6 °F 73% 30.07 in 10.0 mi WSW 9.2 mph - N/A   Mostly Cloudy
1:55 PM 69.8 °F 62.6 °F 78% 30.07 in 10.0 mi SW 6.9 mph - N/A   Mostly Cloudy
2:15 PM 71.6 °F 62.6 °F 73% 30.07 in 10.0 mi WSW 5.8 mph - N/A   Mostly Cloudy
2:35 PM 69.8 °F 62.6 °F 78% 30.06 in 10.0 mi SW 4.6 mph - N/A   Mostly Cloudy
2:55 PM 69.8 °F 62.6 °F 78% 30.06 in 10.0 mi WSW 4.6 mph - N/A   Overcast
3:15 PM 71.6 °F 62.6 °F 73% 30.05 in 10.0 mi SW 4.6 mph - N/A   Overcast
3:35 PM 71.6 °F 62.6 °F 73% 30.05 in 10.0 mi SW 6.9 mph - N/A   Overcast
3:55 PM 71.6 °F 62.6 °F 73% 30.05 in 10.0 mi WSW 5.8 mph - N/A Thunderstorm Thunderstorm
4:15 PM 69.8 °F 62.6 °F 78% 30.05 in 10.0 mi SW 4.6 mph - N/A   Overcast
4:35 PM 66.2 °F 62.6 °F 88% 30.06 in 10.0 mi SW 5.8 mph - N/A Thunderstorm Overcast
4:55 PM 64.4 °F 64.4 °F 100% 30.06 in 7.0 mi Calm Calm - N/A   Overcast
5:15 PM 64.4 °F 62.6 °F 94% 30.07 in 10.0 mi SSW 3.5 mph - N/A   Overcast
5:35 PM 66.2 °F 62.6 °F 88% 30.07 in 10.0 mi SW 5.8 mph - N/A   Mostly Cloudy
5:55 PM 66.2 °F 62.6 °F 88% 30.07 in 10.0 mi WSW 3.5 mph - N/A   Scattered Clouds
6:15 PM 66.2 °F 64.4 °F 94% 30.07 in 10.0 mi Calm Calm - N/A   Mostly Cloudy
6:35 PM 64.4 °F 62.6 °F 94% 30.08 in 10.0 mi NNW 3.5 mph - N/A   Overcast
6:55 PM 64.4 °F 62.6 °F 94% 30.08 in 7.0 mi NW 3.5 mph - N/A   Overcast
7:15 PM 64.4 °F 62.6 °F 94% 30.08 in 7.0 mi NNW 3.5 mph - N/A   Overcast
7:35 PM 64.4 °F 62.6 °F 94% 30.09 in 7.0 mi Calm Calm - N/A   Overcast
7:55 PM 64.4 °F 62.6 °F 94% 30.09 in 7.0 mi Calm Calm - N/A   Overcast
8:15 PM 62.6 °F 62.6 °F 100% 30.10 in 7.0 mi Calm Calm - N/A   Overcast
8:35 PM 62.6 °F 62.6 °F 100% 30.10 in 7.0 mi Calm Calm - N/A   Overcast
8:55 PM 64.4 °F 62.6 °F 94% 30.10 in 10.0 mi Calm Calm - N/A   Overcast
9:15 PM 64.4 °F 60.8 °F 88% 30.11 in 10.0 mi Calm Calm - N/A   Overcast
9:35 PM 62.6 °F 60.8 °F 94% 30.11 in 10.0 mi Calm Calm - N/A   Overcast
9:55 PM 62.6 °F 60.8 °F 94% 30.11 in 10.0 mi WNW 3.5 mph - N/A   Overcast
10:15 PM 62.6 °F 60.8 °F 94% 30.11 in 10.0 mi NW 3.5 mph - N/A   Overcast
10:35 PM 62.6 °F 60.8 °F 94% 30.11 in 10.0 mi Calm Calm - N/A   Overcast
10:55 PM 62.6 °F 60.8 °F 94% 30.12 in 10.0 mi Calm Calm - N/A   Mostly Cloudy
11:15 PM 62.6 °F 60.8 °F 94% 30.12 in 10.0 mi Calm Calm - N/A   Overcast
11:35 PM 62.6 °F 60.8 °F 94% 30.11 in 10.0 mi Calm Calm - N/A   Overcast
11:55 PM 62.6 °F 60.8 °F 94% 30.11 in 10.0 mi Calm Calm - N/A   Overcast